Zurück zum Katalog

GEESAT 4-09

AktivKommunikationLEO
NORAD 65127·PAYLOAD·🇨🇳 China

Gestartet Aug 8, 2025 von Yellow Sea Launch Area

Loading…

Nächste Überflüge (nächste 24 Stunden)

TLE

AktuellSource: Space-Track

Epoche: Sep 14, 2026, 14:09 UTC

1 65127U 25170J   26257.59025943  .00001124  00000-0  16946-3 0  9992
2 65127  49.9912 150.9686 0022287  13.2796 346.8723 14.81634555 59257

Verfolge GEESAT 4-09 in Echtzeit mit AllMySat

Download on the App Store